DELTA 1 DEB, 21296

Orbit data source: Space-Track

DELTA 1 DEB, 21296 is space debris in SSO originally from a launch on Thu, 12 Jun 1975 UTC launched from the Air Force Western Test Range (AFWTR). Debris objects in space refer to the collection of defunct objects orbiting the Earth. Examples of debris include non-operational satellites, rocket bodies, and fragments generated from explosions, collisions, or faulty payload assembly.

Loading next visibility...
Identifier
21296, 1975-052AH
Orbit
SSO
Country
Flag of USUS
Related business
Manufacturer
Unknown
Mission
Spacecraft
Bus & Motor
Unknown
Mass
Unknown
Launch date (UTC)
1975-06-12 (50 years ago)
Launch vehicle
Unknown
Launch site
Air Force Western Test Range (AFWTR)
Object type
Payload
Rocket body
Debris
Shape & HBR
Unknown shape, 0.1 m
Radar Cross Section
Small (<0.1 m²)

Expand to show TLE details & history
Last TLE update: 1 day ago

TLE from 1 day ago
0 DELTA 1 DEB
1 21296U 75052AH  25306.01839172  .00000255  00000-0  72522-3 0  9999
2 21296  99.5712 141.6923 0235899  74.6058  81.8266 13.10604268646533
Epoch: 2025-11-02T00:26Z
TLE epoch observation values (Epoch: 2025-11-02T00:26:29.044Z)
Latitude
20.5846°
Longitude
-82.85639°
Altitude
1,201.888 km
Speed
7.265 km/s
True Right ascension
21h 41m 13s
True Declination
20° 28' 42"
Sunlit
Object was in daylight at epoch
Visualization orbit readout
Latitude
Unknown
Longitude
Unknown
Altitude
Unknown
Speed
Unknown
Apparent Right ascension
Unknown
Apparent Declination
Unknown
Sunlit
N/A
Visualization observer readout
Local Sidereal Time
02:46:53
Azimuth
Unknown
Elevation
Unknown
Doppler factor
Unknown
Orbital elements
Apogee altitude
1,397.364 km
Perigee altitude
1,038.972 km
Semi-major axis
7,596.305 km
Eccentricity
0.02359
Inclination
99.5712°
RAAN
141.6923°
Arg. of periapsis
74.6058°
True anomaly
84.51262°
Mean anomaly
81.8266°
Eccentric anomaly
83.16861°
Mean motion
3.27823 °/min
Orbital period
109.82 mins
BSTAR
0.00072522
Loading maneuver chart data...
Computing Atmospheric mass density...
Loading historical data...
Loading historical data...
Loading historical data...
Loading historical data...
Loading historical data...
Loading historical data...
Loading historical data...

Documentation

Showing up to 5 results
|